Location: Unspecified
(36.7798°N, 0.0000°E)
Time: 18:33:44
(UTC+00:00)

S3M - Visible Passes

Search period start: 04 April 2026 00:00
Search period end: 14 April 2026 00:00
Orbit: 949 x 1003 km, 83.0° (Epoch: 29 March)

Date Brightness Start Highest point End Pass type
(mag) Time Alt. Az. Time Alt. Az. Time Alt. Az.
4 Apr 6.9 05:00:25 10° SE 05:04:59 21° E 05:09:32 10° NE visible
7 Apr 6.9 04:32:09 10° ESE 04:36:11 18° E 04:40:12 10° NE visible
8 Apr 6.0 04:55:41 10° SSE 05:01:17 33° E 05:06:53 10° NNE visible
10 Apr 6.9 04:04:03 10° ESE 04:07:24 15° E 04:10:44 10° NE visible
11 Apr 6.2 04:27:10 10° SE 04:32:28 28° E 04:37:45 10° NNE visible
12 Apr 5.0 04:51:32 10° SSE 04:57:41 53° E 05:03:50 10° NNE visible
13 Apr 7.0 03:36:16 10° ESE 03:38:37 12° E 03:40:58 10° ENE visible
